Weather History for LTCF - December, 2012

Change the Weather History Date:

Friday, December 14, 2012

  Actual Average Record
Temperature  
Mean Temperature 22 °F -  
Max Temperature 27 °F 26 °F - ()
Min Temperature 16 °F 10 °F - ()
Degree Days  
Heating Degree Days 44    
Moisture  
Dew Point 21 °F    
Average Humidity 97    
Maximum Humidity 100    
Minimum Humidity 88    
Precipitation  
Precipitation 0.01 in 0.03 in - ()
Sea Level Pressure  
Sea Level Pressure 30.12 in    
Wind  
Wind Speed 2 mph ()    
Max Wind Speed 6 mph    
Max Gust Speed -    
Visibility 5.3 miles    
Events Snow    
T = Trace of Precipitation, MM = Missing Value Source: Averaged Metar Reports

Daily Weather History Graph

Daily Weather History Graph

Search for Another Location

Airport or City:

Trip Planner

Search our weather history database for the weather conditions in past years. The results will help you decide how hot, cold, wet, or windy it might be!

Date:

Astronomy

Dec. 14, 2012 Rise Set
Actual Time 6:23 AM EET 3:41 PM EET
Civil Twilight 5:52 AM EET 4:12 PM EET
Nautical Twilight 5:18 AM EET 4:46 PM EET
Astronomical Twilight 4:45 AM EET 5:19 PM EET
Moon 7:08 AM EET (12/14) 5:07 PM EET (12/14)
Length of Visible Light 10h 19m
Length of Day
9h 17m
New Moon, 2% of the Moon is Illuminated
Dec 14
New Moon
Dec 20
First Quarter
Dec 28
Full
Jan 5
Last Quarter
Jan 11
New

Hourly Weather History & Observations

Time (EET) Temp. Windchill Dew Point Humidity Pressure Visibility Wind Dir Wind Speed Gust Speed Precip Events Conditions
1:50 AM 21.2 °F 16.4 °F 19.4 °F 93% 30.09 in 6.2 mi SE 3.5 mph - N/A   Mostly Cloudy
2:50 AM 21.2 °F - 19.4 °F 93% 30.09 in 6.2 mi South 1.2 mph - N/A   Mostly Cloudy
3:50 AM 21.2 °F - 19.4 °F 93% 30.09 in 6.2 mi Calm Calm - N/A   Mostly Cloudy
4:50 AM 19.4 °F 12.8 °F 19.4 °F 100% 30.09 in 6.2 mi WSW 4.6 mph - N/A   Mostly Cloudy
5:50 AM 19.4 °F - 17.6 °F 93% 30.09 in 6.2 mi SW 1.2 mph - N/A   Mostly Cloudy
6:50 AM 17.6 °F 12.3 °F 17.6 °F 100% 30.09 in 6.2 mi West 3.5 mph - N/A   Mostly Cloudy
7:50 AM 19.4 °F - 17.6 °F 93% 30.09 in 6.2 mi WSW 2.3 mph - N/A   Mostly Cloudy
8:00 AM 19 °F - 17 °F 88%  in 6 mi WSW 2.3 mph - -   Partly Cloudy
8:50 AM 21.2 °F - 21.2 °F 100% 30.12 in 3.1 mi Calm Calm - N/A Snow Light Snow
9:50 AM 21.2 °F 16.4 °F 21.2 °F 100% 30.12 in 5.0 mi NW 3.5 mph - N/A   Mostly Cloudy
10:50 AM 23.0 °F - 23.0 °F 100% 30.12 in 3.1 mi West 2.3 mph - N/A   Mostly Cloudy
11:50 AM 23.0 °F - 23.0 °F 100% 30.09 in 4.3 mi SW 1.2 mph - N/A   Mostly Cloudy
12:50 PM 24.8 °F - 24.8 °F 100% 30.09 in 4.3 mi Calm Calm - N/A Snow Light Snow
1:50 PM 24.8 °F - 24.8 °F 100% 30.12 in 3.7 mi Calm Calm - N/A Snow Light Snow
2:00 PM 24 °F - 23 °F 96%  in 4 mi Calm Calm - - Snow Light Snow
2:50 PM 23.0 °F - 23.0 °F 100% 30.12 in 1.9 mi Calm Calm - N/A Snow Light Snow
3:50 PM 23.0 °F - 23.0 °F 100% 30.12 in 3.1 mi Calm Calm - N/A Snow Light Snow
4:50 PM 23.0 °F - 23.0 °F 100% 30.15 in 5.6 mi Calm Calm - N/A Snow Light Snow
5:50 PM 21.2 °F - 21.2 °F 100% 30.15 in 6.2 mi Calm Calm - N/A   Overcast
6:50 PM 23.0 °F - 21.2 °F 93% 30.15 in 6.2 mi ENE 1.2 mph - N/A Snow Light Snow
7:50 PM 23.0 °F 18.4 °F 23.0 °F 100% 30.15 in 6.2 mi NE 3.5 mph - N/A Snow Light Snow
8:00 PM 23 °F - 22 °F 95%  in 6 mi NE 3.5 mph - - Snow Light Snow
8:50 PM 23.0 °F 17.0 °F 23.0 °F 100% 30.15 in 6.2 mi NE 4.6 mph - N/A Snow Light Snow
9:50 PM 23.0 °F 15.8 °F 21.2 °F 93% 30.18 in 6.2 mi North 5.8 mph - N/A   Overcast
10:50 PM 19.4 °F - 19.4 °F 100% 30.18 in 6.2 mi Calm Calm - N/A   Mostly Cloudy
11:50 PM 21.2 °F 13.6 °F 19.4 °F 93% 30.18 in 6.2 mi NE 5.8 mph - N/A   Mostly Cloudy